Simultaneous Nadir Overpasses (SNOs) Predictions

Prediction of SNOs between AQUA and METOP-B Satellite Orbit:

Table of predicted SNOs for the next 14.0 days since TLE Epoch: 3/15/2025
Index Date (AQUA) Time (AQUA) Lat,Lon (AQUA) SZA (AQUA ) Date (METOP-B) Time (METOP-B) Lat,Lon (METOP-B) SZA (METOP-B ) Distance(km) Time Diff (sec)
1 03/17/2025 16:32:59 -77.08, 110.59 101.92 03/17/2025 16:32:17 -77.08, 110.55 101.92 1.03 42
2 03/17/2025 17:22:19 77.12, -81.90 78.11 03/17/2025 17:22:56 77.14, -81.87 78.13 2.28 37
3 03/20/2025 05:22:03 -77.09, -81.67 102.91 03/20/2025 05:21:19 -77.09, -81.69 102.91 0.61 44
4 03/20/2025 06:11:23 77.14, 85.82 77.13 03/20/2025 06:11:58 77.15, 85.87 77.14 1.64 35
5 03/22/2025 18:11:05 -77.12, 86.01 103.88 03/22/2025 18:10:21 -77.09, 86.01 103.91 4.28 44
6 03/22/2025 19:00:24 77.13,-106.33 76.11 03/22/2025 19:01:00 77.14,-106.43 76.13 3.05 36
7 03/25/2025 07:00:04 -77.13,-106.18 104.88 03/25/2025 06:59:22 -77.11,-106.17 104.89 1.52 42
8 03/25/2025 07:49:24 77.18, 61.29 75.17 03/25/2025 07:50:01 77.17, 61.38 75.15 2.69 37
9 03/27/2025 19:49:01 -77.14, 61.58 105.86 03/27/2025 19:48:23 -77.13, 61.59 105.87 2.08 38



Historial Predications of SNOs between AQUA and METOP-B
